Tracking 25195 objects as of 20-Jan-2022
HD Live streaming from Space Station
objects crossing your sky now

IRIDIUM 33 DEB

Track IRIDIUM 33 DEB now!
10-day predictions


NORAD ID: 46967
Int'l Code: 1997-051ABZ
Perigee: 616.4 km
Apogee: 665.7 km
Inclination: 86.2 °
Period: 97.4 minutes
Semi major axis: 7012 km
RCS: Unknown
Launch date: September 14, 1997
Source: United States (US)
Launch site: TYURATAM MISSILE AND SPACE COMPLEX (TTMTR)

Note: This is SATELLITE DEBRIS
aabbcc
Your satellite tracking list
Your tracking list is empty




NASA's NSSDC Master Catalog

Two Line Element Set (TLE):
1 46967U 97051ABZ 22019.59674028  .00014385  00000-0  19432-2 0  9991
2 46967  86.2383 137.4027 0035165   6.9192 353.2506 14.78543105533503
Source of the keplerian elements: AFSPC